Location: Estes Par
(40.3770°N, 105.5210°W)
Time: 15:34:44

Envisat - Pass Details

Date: 15 October 2017
Orbit: 764 x 766 km, 98.2° (Epoch: 18 March)

Event Time Altitude Azimuth Distance (km) Brightness Sun altitude
Exits shadow 21:03:33 40° 334° (NNW) 1,112 4.0 -31.4°
Drops below altitude 10° 21:06:49 10° 344° (NNW) 2,307 5.8 -32.0°
Sets 21:09:08 0° 346° (NNW) 3,237 6.6 -32.4°
